Location: Unspecified
(40.7945°N, 0.0000°E)
Time: 10:17:27
(UTC+00:00)

Courier 1B - Pass Details

Date: 21 January 2021
Orbit: 962 x 1209 km, 28.3° (Epoch: 26 February)

Event Time Altitude Azimuth Distance (km) Brightness Sun altitude
Rises 05:20:47 0° 256° (WSW) 3,655 - -22.2°
Reaches altitude 10° 05:24:34 10° 235° (SW) 2,733 - -21.5°
Exits shadow 05:26:16 14° 220° (SW) 2,480 9.3 -21.2°
Maximum altitude 05:28:16 16° 200° (SSW) 2,379 9.4 -20.8°
Drops below altitude 10° 05:32:03 10° 166° (SSE) 2,809 10.2 -20.1°
Sets 05:36:02 0° 145° (SE) 3,812 11.3 -19.3°
